owner,sensor,date,latitude,longitude,relative_humidity,qcFlag 
DISL,ioos:station:DISL:CATA:1,2017-04-01T00:00:00Z,30.3085,-88.1395,59.9,1111122 
DISL,ioos:station:DISL:CATA:1,2017-04-01T00:30:00Z,30.3085,-88.1395,58.67,1111122 
DISL,ioos:station:DISL:CATA:1,2017-04-01T01:00:00Z,30.3085,-88.1395,60.52,1111122 
DISL,ioos:station:DISL:CATA:1,2017-04-01T01:30:00Z,30.3085,-88.1395,60.93,1111122 
DISL,ioos:station:DISL:CATA:1,2017-04-01T02:00:00Z,30.3085,-88.1395,63.16,1111122 
DISL,ioos:station:DISL:CATA:1,2017-04-01T02:30:00Z,30.3085,-88.1395,69.02,1111122 
DISL,ioos:station:DISL:CATA:1,2017-04-01T03:00:00Z,30.3085,-88.1395,65.97,1111122 
DISL,ioos:station:DISL:CATA:1,2017-04-01T03:30:00Z,30.3085,-88.1395,66.62,1111122 
DISL,ioos:station:DISL:CATA:1,2017-04-01T04:00:00Z,30.3085,-88.1395,67.92,1111122 
DISL,ioos:station:DISL:CATA:1,2017-04-01T04:30:00Z,30.3085,-88.1395,69.57,1111122 
DISL,ioos:station:DISL:CATA:1,2017-04-01T05:00:00Z,30.3085,-88.1395,66.93,1111122 
DISL,ioos:station:DISL:CATA:1,2017-04-01T05:30:00Z,30.3085,-88.1395,72.45,1111122 
DISL,ioos:station:DISL:CATA:1,2017-04-01T06:30:00Z,30.3085,-88.1395,72.65,1111122 
DISL,ioos:station:DISL:CATA:1,2017-04-01T07:00:00Z,30.3085,-88.1395,73.47,1111122 
DISL,ioos:station:DISL:CATA:1,2017-04-01T07:30:00Z,30.3085,-88.1395,71.56,1111122 
DISL,ioos:station:DISL:CATA:1,2017-04-01T08:00:00Z,30.3085,-88.1395,83.7,1111122 
DISL,ioos:station:DISL:CATA:1,2017-04-01T08:30:00Z,30.3085,-88.1395,85.1,1111122 
DISL,ioos:station:DISL:CATA:1,2017-04-01T09:00:00Z,30.3085,-88.1395,88.3,1111122 
DISL,ioos:station:DISL:CATA:1,2017-04-01T09:30:00Z,30.3085,-88.1395,87.7,1111122 
DISL,ioos:station:DISL:CATA:1,2017-04-01T10:00:00Z,30.3085,-88.1395,86.0,1111122 
DISL,ioos:station:DISL:CATA:1,2017-04-01T10:30:00Z,30.3085,-88.1395,87.7,1111122 
DISL,ioos:station:DISL:CATA:1,2017-04-01T11:00:00Z,30.3085,-88.1395,86.8,1111122 
DISL,ioos:station:DISL:CATA:1,2017-04-01T11:30:00Z,30.3085,-88.1395,88.2,1111122 
DISL,ioos:station:DISL:CATA:1,2017-04-01T12:00:00Z,30.3085,-88.1395,89.4,1111122 
DISL,ioos:station:DISL:CATA:1,2017-04-01T12:30:00Z,30.3085,-88.1395,88.3,1111122 
DISL,ioos:station:DISL:CATA:1,2017-04-01T13:00:00Z,30.3085,-88.1395,84.7,1111122 
DISL,ioos:station:DISL:CATA:1,2017-04-01T13:30:00Z,30.3085,-88.1395,80.7,1111122 
DISL,ioos:station:DISL:CATA:1,2017-04-01T14:00:00Z,30.3085,-88.1395,78.44,1111122 
DISL,ioos:station:DISL:CATA:1,2017-04-01T14:30:00Z,30.3085,-88.1395,75.09,1111122 
DISL,ioos:station:DISL:CATA:1,2017-04-01T15:00:00Z,30.3085,-88.1395,75.29,1111122 
DISL,ioos:station:DISL:CATA:1,2017-04-01T15:30:00Z,30.3085,-88.1395,72.38,1111122 
DISL,ioos:station:DISL:CATA:1,2017-04-01T16:00:00Z,30.3085,-88.1395,76.83,1111122 
DISL,ioos:station:DISL:CATA:1,2017-04-01T16:30:00Z,30.3085,-88.1395,74.87,1111122 
DISL,ioos:station:DISL:CATA:1,2017-04-01T17:00:00Z,30.3085,-88.1395,73.94,1111122 
DISL,ioos:station:DISL:CATA:1,2017-04-01T17:30:00Z,30.3085,-88.1395,74.14,1111122 
DISL,ioos:station:DISL:CATA:1,2017-04-01T18:00:00Z,30.3085,-88.1395,71.15,1111122 
DISL,ioos:station:DISL:CATA:1,2017-04-01T18:30:00Z,30.3085,-88.1395,67.08,1111122 
DISL,ioos:station:DISL:CATA:1,2017-04-01T19:00:00Z,30.3085,-88.1395,62.28,1111122 
DISL,ioos:station:DISL:CATA:1,2017-04-01T19:30:00Z,30.3085,-88.1395,64.06,1111122 
DISL,ioos:station:DISL:CATA:1,2017-04-01T20:00:00Z,30.3085,-88.1395,61.19,1111122 
DISL,ioos:station:DISL:CATA:1,2017-04-01T20:30:00Z,30.3085,-88.1395,59.16,1111122 
DISL,ioos:station:DISL:CATA:1,2017-04-01T21:00:00Z,30.3085,-88.1395,60.05,1111122 
DISL,ioos:station:DISL:CATA:1,2017-04-01T21:30:00Z,30.3085,-88.1395,54.78,1111122 
DISL,ioos:station:DISL:CATA:1,2017-04-01T22:00:00Z,30.3085,-88.1395,52.79,1111122 
DISL,ioos:station:DISL:CATA:1,2017-04-01T22:30:00Z,30.3085,-88.1395,59.23,1111122 
DISL,ioos:station:DISL:CATA:1,2017-04-01T23:00:00Z,30.3085,-88.1395,59.58,1111122 
DISL,ioos:station:DISL:CATA:1,2017-04-01T23:30:00Z,30.3085,-88.1395,60.93,1111122 
DISL,ioos:station:DISL:CATA:1,2017-04-02T00:00:00Z,30.3085,-88.1395,58.05,1111122 
DISL,ioos:station:DISL:CATA:1,2017-04-02T00:30:00Z,30.3085,-88.1395,62.65,1111122 
DISL,ioos:station:DISL:CATA:1,2017-04-02T01:00:00Z,30.3085,-88.1395,67.44,1111122 
DISL,ioos:station:DISL:CATA:1,2017-04-02T01:30:00Z,30.3085,-88.1395,69.57,1111122 
DISL,ioos:station:DISL:CATA:1,2017-04-02T02:00:00Z,30.3085,-88.1395,70.53,1111122 
DISL,ioos:station:DISL:CATA:1,2017-04-02T02:30:00Z,30.3085,-88.1395,66.86,1111122 
DISL,ioos:station:DISL:CATA:1,2017-04-02T03:00:00Z,30.3085,-88.1395,70.01,1111122 
DISL,ioos:station:DISL:CATA:1,2017-04-02T03:30:00Z,30.3085,-88.1395,70.66,1111122 
DISL,ioos:station:DISL:CATA:1,2017-04-02T04:00:00Z,30.3085,-88.1395,71.14,1111122 
DISL,ioos:station:DISL:CATA:1,2017-04-02T04:30:00Z,30.3085,-88.1395,71.49,1111122 
DISL,ioos:station:DISL:CATA:1,2017-04-02T05:00:00Z,30.3085,-88.1395,70.87,1111122 
DISL,ioos:station:DISL:CATA:1,2017-04-02T05:30:00Z,30.3085,-88.1395,72.79,1111122 
DISL,ioos:station:DISL:CATA:1,2017-04-02T06:30:00Z,30.3085,-88.1395,78.55,1111122 
DISL,ioos:station:DISL:CATA:1,2017-04-02T07:00:00Z,30.3085,-88.1395,79.16,1111122 
DISL,ioos:station:DISL:CATA:1,2017-04-02T07:30:00Z,30.3085,-88.1395,82.7,1111122 
DISL,ioos:station:DISL:CATA:1,2017-04-02T08:00:00Z,30.3085,-88.1395,78.75,1111122 
DISL,ioos:station:DISL:CATA:1,2017-04-02T08:30:00Z,30.3085,-88.1395,78.48,1111122 
DISL,ioos:station:DISL:CATA:1,2017-04-02T09:00:00Z,30.3085,-88.1395,83.1,1111122 
DISL,ioos:station:DISL:CATA:1,2017-04-02T09:30:00Z,30.3085,-88.1395,82.8,1111122 
DISL,ioos:station:DISL:CATA:1,2017-04-02T10:00:00Z,30.3085,-88.1395,84.0,1111122 
DISL,ioos:station:DISL:CATA:1,2017-04-02T10:30:00Z,30.3085,-88.1395,84.5,1111122 
DISL,ioos:station:DISL:CATA:1,2017-04-02T11:00:00Z,30.3085,-88.1395,86.6,1111122 
DISL,ioos:station:DISL:CATA:1,2017-04-02T11:30:00Z,30.3085,-88.1395,87.8,1111122 
DISL,ioos:station:DISL:CATA:1,2017-04-02T12:00:00Z,30.3085,-88.1395,88.5,1111122 
DISL,ioos:station:DISL:CATA:1,2017-04-02T12:30:00Z,30.3085,-88.1395,88.1,1111122 
DISL,ioos:station:DISL:CATA:1,2017-04-02T13:00:00Z,30.3085,-88.1395,86.9,1111122 
DISL,ioos:station:DISL:CATA:1,2017-04-02T13:30:00Z,30.3085,-88.1395,84.8,1111122 
DISL,ioos:station:DISL:CATA:1,2017-04-02T14:00:00Z,30.3085,-88.1395,82.1,1111122 
DISL,ioos:station:DISL:CATA:1,2017-04-02T14:30:00Z,30.3085,-88.1395,82.0,1111122 
DISL,ioos:station:DISL:CATA:1,2017-04-02T15:00:00Z,30.3085,-88.1395,81.9,1111122 
DISL,ioos:station:DISL:CATA:1,2017-04-02T15:30:00Z,30.3085,-88.1395,82.2,1111122 
DISL,ioos:station:DISL:CATA:1,2017-04-02T16:00:00Z,30.3085,-88.1395,78.02,1111122 
DISL,ioos:station:DISL:CATA:1,2017-04-02T16:30:00Z,30.3085,-88.1395,81.4,1111122 
DISL,ioos:station:DISL:CATA:1,2017-04-02T17:00:00Z,30.3085,-88.1395,80.2,1111122 
DISL,ioos:station:DISL:CATA:1,2017-04-02T17:30:00Z,30.3085,-88.1395,79.01,1111122 
DISL,ioos:station:DISL:CATA:1,2017-04-02T18:00:00Z,30.3085,-88.1395,80.9,1111122 
DISL,ioos:station:DISL:CATA:1,2017-04-02T18:30:00Z,30.3085,-88.1395,79.66,1111122 
DISL,ioos:station:DISL:CATA:1,2017-04-02T19:00:00Z,30.3085,-88.1395,79.32,1111122 
DISL,ioos:station:DISL:CATA:1,2017-04-02T19:30:00Z,30.3085,-88.1395,80.9,1111122 
DISL,ioos:station:DISL:CATA:1,2017-04-02T20:00:00Z,30.3085,-88.1395,77.99,1111122 
DISL,ioos:station:DISL:CATA:1,2017-04-02T20:30:00Z,30.3085,-88.1395,78.27,1111122 
DISL,ioos:station:DISL:CATA:1,2017-04-02T21:00:00Z,30.3085,-88.1395,78.31,1111122 
DISL,ioos:station:DISL:CATA:1,2017-04-02T21:30:00Z,30.3085,-88.1395,81.1,1111122 
DISL,ioos:station:DISL:CATA:1,2017-04-02T22:00:00Z,30.3085,-88.1395,83.3,1111122 
DISL,ioos:station:DISL:CATA:1,2017-04-02T22:30:00Z,30.3085,-88.1395,82.5,1111122 
DISL,ioos:station:DISL:CATA:1,2017-04-02T23:00:00Z,30.3085,-88.1395,84.6,1111122 
DISL,ioos:station:DISL:CATA:1,2017-04-02T23:30:00Z,30.3085,-88.1395,85.6,1111122 
DISL,ioos:station:DISL:CATA:1,2017-04-03T00:00:00Z,30.3085,-88.1395,87.9,1111122 
DISL,ioos:station:DISL:CATA:1,2017-04-03T00:30:00Z,30.3085,-88.1395,89.9,1111122 
DISL,ioos:station:DISL:CATA:1,2017-04-03T01:00:00Z,30.3085,-88.1395,90.2,1111122 
DISL,ioos:station:DISL:CATA:1,2017-04-03T01:30:00Z,30.3085,-88.1395,90.6,1111122 
DISL,ioos:station:DISL:CATA:1,2017-04-03T02:00:00Z,30.3085,-88.1395,91.2,1111122 
DISL,ioos:station:DISL:CATA:1,2017-04-03T02:30:00Z,30.3085,-88.1395,91.2,1111122 
DISL,ioos:station:DISL:CATA:1,2017-04-03T03:00:00Z,30.3085,-88.1395,90.9,1111122 
DISL,ioos:station:DISL:CATA:1,2017-04-03T03:30:00Z,30.3085,-88.1395,92.0,1111122 
DISL,ioos:station:DISL:CATA:1,2017-04-03T04:00:00Z,30.3085,-88.1395,91.7,1111122 
DISL,ioos:station:DISL:CATA:1,2017-04-03T04:30:00Z,30.3085,-88.1395,91.6,1111122 
DISL,ioos:station:DISL:CATA:1,2017-04-03T05:00:00Z,30.3085,-88.1395,91.4,1111122 
DISL,ioos:station:DISL:CATA:1,2017-04-03T05:30:00Z,30.3085,-88.1395,92.2,1111122 
DISL,ioos:station:DISL:CATA:1,2017-04-03T06:30:00Z,30.3085,-88.1395,90.8,1111122 
DISL,ioos:station:DISL:CATA:1,2017-04-03T07:00:00Z,30.3085,-88.1395,91.9,1111122 
DISL,ioos:station:DISL:CATA:1,2017-04-03T07:30:00Z,30.3085,-88.1395,91.9,1111122 
DISL,ioos:station:DISL:CATA:1,2017-04-03T08:00:00Z,30.3085,-88.1395,91.3,1111122 
DISL,ioos:station:DISL:CATA:1,2017-04-03T08:30:00Z,30.3085,-88.1395,90.6,1111122 
DISL,ioos:station:DISL:CATA:1,2017-04-03T09:00:00Z,30.3085,-88.1395,90.4,1111122 
DISL,ioos:station:DISL:CATA:1,2017-04-03T09:30:00Z,30.3085,-88.1395,89.2,1111122 
DISL,ioos:station:DISL:CATA:1,2017-04-03T10:00:00Z,30.3085,-88.1395,90.9,1111122 
DISL,ioos:station:DISL:CATA:1,2017-04-03T10:30:00Z,30.3085,-88.1395,90.4,1111122 
DISL,ioos:station:DISL:CATA:1,2017-04-03T11:00:00Z,30.3085,-88.1395,90.8,1111122 
DISL,ioos:station:DISL:CATA:1,2017-04-03T11:30:00Z,30.3085,-88.1395,90.3,1111122 
DISL,ioos:station:DISL:CATA:1,2017-04-03T12:00:00Z,30.3085,-88.1395,90.4,1111122 
DISL,ioos:station:DISL:CATA:1,2017-04-03T12:30:00Z,30.3085,-88.1395,90.2,1111122 
DISL,ioos:station:DISL:CATA:1,2017-04-03T13:00:00Z,30.3085,-88.1395,89.9,1111122 
DISL,ioos:station:DISL:CATA:1,2017-04-03T13:30:00Z,30.3085,-88.1395,89.0,1111122 
DISL,ioos:station:DISL:CATA:1,2017-04-03T14:00:00Z,30.3085,-88.1395,90.7,1111122 
DISL,ioos:station:DISL:CATA:1,2017-04-03T14:30:00Z,30.3085,-88.1395,97.9,1111122 
DISL,ioos:station:DISL:CATA:1,2017-04-03T15:00:00Z,30.3085,-88.1395,97.1,1111122 
DISL,ioos:station:DISL:CATA:1,2017-04-03T15:30:00Z,30.3085,-88.1395,93.1,1111122 
DISL,ioos:station:DISL:CATA:1,2017-04-03T16:00:00Z,30.3085,-88.1395,92.5,1111122 
DISL,ioos:station:DISL:CATA:1,2017-04-03T16:30:00Z,30.3085,-88.1395,90.5,1111122 
DISL,ioos:station:DISL:CATA:1,2017-04-03T17:00:00Z,30.3085,-88.1395,89.5,1111122 
DISL,ioos:station:DISL:CATA:1,2017-04-03T17:30:00Z,30.3085,-88.1395,88.3,1111122 
DISL,ioos:station:DISL:CATA:1,2017-04-03T18:00:00Z,30.3085,-88.1395,87.5,1111122 
DISL,ioos:station:DISL:CATA:1,2017-04-03T18:30:00Z,30.3085,-88.1395,85.1,1111122 
DISL,ioos:station:DISL:CATA:1,2017-04-03T19:00:00Z,30.3085,-88.1395,81.9,1111122 
DISL,ioos:station:DISL:CATA:1,2017-04-03T19:30:00Z,30.3085,-88.1395,79.5,1111122 
DISL,ioos:station:DISL:CATA:1,2017-04-03T20:00:00Z,30.3085,-88.1395,79.39,1111122 
DISL,ioos:station:DISL:CATA:1,2017-04-03T20:30:00Z,30.3085,-88.1395,72.95,1111122 
DISL,ioos:station:DISL:CATA:1,2017-04-03T21:00:00Z,30.3085,-88.1395,72.53,1111122 
DISL,ioos:station:DISL:CATA:1,2017-04-03T21:30:00Z,30.3085,-88.1395,72.98,1111122 
DISL,ioos:station:DISL:CATA:1,2017-04-03T22:00:00Z,30.3085,-88.1395,75.37,1111122 
DISL,ioos:station:DISL:CATA:1,2017-04-03T22:30:00Z,30.3085,-88.1395,79.87,1111122 
DISL,ioos:station:DISL:CATA:1,2017-04-03T23:00:00Z,30.3085,-88.1395,84.4,1111122 
DISL,ioos:station:DISL:CATA:1,2017-04-03T23:30:00Z,30.3085,-88.1395,83.5,1111122 
DISL,ioos:station:DISL:CATA:1,2017-04-04T00:00:00Z,30.3085,-88.1395,87.0,1111122 
DISL,ioos:station:DISL:CATA:1,2017-04-04T00:30:00Z,30.3085,-88.1395,83.8,1111122 
DISL,ioos:station:DISL:CATA:1,2017-04-04T01:00:00Z,30.3085,-88.1395,86.8,1111122 
DISL,ioos:station:DISL:CATA:1,2017-04-04T01:30:00Z,30.3085,-88.1395,83.5,1111122 
DISL,ioos:station:DISL:CATA:1,2017-04-04T02:00:00Z,30.3085,-88.1395,86.4,1111122 
DISL,ioos:station:DISL:CATA:1,2017-04-04T02:30:00Z,30.3085,-88.1395,86.3,1111122 
DISL,ioos:station:DISL:CATA:1,2017-04-04T03:00:00Z,30.3085,-88.1395,87.2,1111122 
DISL,ioos:station:DISL:CATA:1,2017-04-04T03:30:00Z,30.3085,-88.1395,86.8,1111122 
DISL,ioos:station:DISL:CATA:1,2017-04-04T04:00:00Z,30.3085,-88.1395,86.4,1111122 
DISL,ioos:station:DISL:CATA:1,2017-04-04T04:30:00Z,30.3085,-88.1395,86.6,1111122 
DISL,ioos:station:DISL:CATA:1,2017-04-04T05:00:00Z,30.3085,-88.1395,88.9,1111122 
DISL,ioos:station:DISL:CATA:1,2017-04-04T05:30:00Z,30.3085,-88.1395,87.0,1111122 
DISL,ioos:station:DISL:CATA:1,2017-04-04T06:30:00Z,30.3085,-88.1395,84.8,1111122 
DISL,ioos:station:DISL:CATA:1,2017-04-04T07:00:00Z,30.3085,-88.1395,87.9,1111122 
DISL,ioos:station:DISL:CATA:1,2017-04-04T07:30:00Z,30.3085,-88.1395,87.8,1111122 
DISL,ioos:station:DISL:CATA:1,2017-04-04T08:00:00Z,30.3085,-88.1395,89.8,1111122 
DISL,ioos:station:DISL:CATA:1,2017-04-04T08:30:00Z,30.3085,-88.1395,91.2,1111122 
DISL,ioos:station:DISL:CATA:1,2017-04-04T09:00:00Z,30.3085,-88.1395,91.0,1111122 
DISL,ioos:station:DISL:CATA:1,2017-04-04T09:30:00Z,30.3085,-88.1395,93.5,1111122 
DISL,ioos:station:DISL:CATA:1,2017-04-04T10:00:00Z,30.3085,-88.1395,95.1,1111122 
DISL,ioos:station:DISL:CATA:1,2017-04-04T10:30:00Z,30.3085,-88.1395,97.5,1111122 
DISL,ioos:station:DISL:CATA:1,2017-04-04T11:00:00Z,30.3085,-88.1395,98.3,1111122 
DISL,ioos:station:DISL:CATA:1,2017-04-04T11:30:00Z,30.3085,-88.1395,98.6,1111122 
DISL,ioos:station:DISL:CATA:1,2017-04-04T12:00:00Z,30.3085,-88.1395,98.8,1111122 
DISL,ioos:station:DISL:CATA:1,2017-04-04T12:30:00Z,30.3085,-88.1395,98.8,1111122 
DISL,ioos:station:DISL:CATA:1,2017-04-04T13:00:00Z,30.3085,-88.1395,98.8,1111122 
DISL,ioos:station:DISL:CATA:1,2017-04-04T13:30:00Z,30.3085,-88.1395,98.9,1111122 
DISL,ioos:station:DISL:CATA:1,2017-04-04T14:00:00Z,30.3085,-88.1395,98.8,1111122 
DISL,ioos:station:DISL:CATA:1,2017-04-04T14:30:00Z,30.3085,-88.1395,97.7,1111122 
DISL,ioos:station:DISL:CATA:1,2017-04-04T15:00:00Z,30.3085,-88.1395,95.9,1111122 
DISL,ioos:station:DISL:CATA:1,2017-04-04T15:30:00Z,30.3085,-88.1395,89.5,1111122 
DISL,ioos:station:DISL:CATA:1,2017-04-04T16:00:00Z,30.3085,-88.1395,89.9,1111122 
DISL,ioos:station:DISL:CATA:1,2017-04-04T16:30:00Z,30.3085,-88.1395,91.3,1111122 
DISL,ioos:station:DISL:CATA:1,2017-04-04T17:00:00Z,30.3085,-88.1395,90.5,1111122 
DISL,ioos:station:DISL:CATA:1,2017-04-04T17:30:00Z,30.3085,-88.1395,86.3,1111122 
DISL,ioos:station:DISL:CATA:1,2017-04-04T18:00:00Z,30.3085,-88.1395,87.2,1111122 
DISL,ioos:station:DISL:CATA:1,2017-04-04T18:30:00Z,30.3085,-88.1395,87.0,1111122 
DISL,ioos:station:DISL:CATA:1,2017-04-04T19:00:00Z,30.3085,-88.1395,85.9,1111122 
DISL,ioos:station:DISL:CATA:1,2017-04-04T19:30:00Z,30.3085,-88.1395,85.2,1111122 
DISL,ioos:station:DISL:CATA:1,2017-04-04T20:00:00Z,30.3085,-88.1395,77.95,1111122 
DISL,ioos:station:DISL:CATA:1,2017-04-04T20:30:00Z,30.3085,-88.1395,67.19,1111122 
DISL,ioos:station:DISL:CATA:1,2017-04-04T21:00:00Z,30.3085,-88.1395,74.25,1111122 
DISL,ioos:station:DISL:CATA:1,2017-04-04T21:30:00Z,30.3085,-88.1395,70.99,1111122 
DISL,ioos:station:DISL:CATA:1,2017-04-04T22:00:00Z,30.3085,-88.1395,70.45,1111122 
DISL,ioos:station:DISL:CATA:1,2017-04-04T22:30:00Z,30.3085,-88.1395,70.25,1111122 
DISL,ioos:station:DISL:CATA:1,2017-04-04T23:00:00Z,30.3085,-88.1395,77.45,1111122 
DISL,ioos:station:DISL:CATA:1,2017-04-04T23:30:00Z,30.3085,-88.1395,80.7,1111122 
DISL,ioos:station:DISL:CATA:1,2017-04-05T00:00:00Z,30.3085,-88.1395,84.7,1111122 
DISL,ioos:station:DISL:CATA:1,2017-04-05T00:30:00Z,30.3085,-88.1395,87.4,1111122 
DISL,ioos:station:DISL:CATA:1,2017-04-05T01:00:00Z,30.3085,-88.1395,89.2,1111122 
DISL,ioos:station:DISL:CATA:1,2017-04-05T01:30:00Z,30.3085,-88.1395,88.6,1111122 
DISL,ioos:station:DISL:CATA:1,2017-04-05T02:00:00Z,30.3085,-88.1395,90.2,1111122 
DISL,ioos:station:DISL:CATA:1,2017-04-05T02:30:00Z,30.3085,-88.1395,91.0,1111122 
DISL,ioos:station:DISL:CATA:1,2017-04-05T03:00:00Z,30.3085,-88.1395,92.6,1111122 
DISL,ioos:station:DISL:CATA:1,2017-04-05T03:30:00Z,30.3085,-88.1395,93.5,1111122 
DISL,ioos:station:DISL:CATA:1,2017-04-05T04:00:00Z,30.3085,-88.1395,94.3,1111122 
DISL,ioos:station:DISL:CATA:1,2017-04-05T04:30:00Z,30.3085,-88.1395,95.8,1111122 
DISL,ioos:station:DISL:CATA:1,2017-04-05T05:00:00Z,30.3085,-88.1395,95.9,1111122 
DISL,ioos:station:DISL:CATA:1,2017-04-05T05:30:00Z,30.3085,-88.1395,95.7,1111122 
DISL,ioos:station:DISL:CATA:1,2017-04-05T06:30:00Z,30.3085,-88.1395,95.8,1111122 
DISL,ioos:station:DISL:CATA:1,2017-04-05T07:00:00Z,30.3085,-88.1395,95.9,1111122 
DISL,ioos:station:DISL:CATA:1,2017-04-05T07:30:00Z,30.3085,-88.1395,95.4,1111122 
DISL,ioos:station:DISL:CATA:1,2017-04-05T08:00:00Z,30.3085,-88.1395,95.7,1111122 
DISL,ioos:station:DISL:CATA:1,2017-04-05T08:30:00Z,30.3085,-88.1395,95.2,1111122 
DISL,ioos:station:DISL:CATA:1,2017-04-05T09:00:00Z,30.3085,-88.1395,94.9,1111122 
DISL,ioos:station:DISL:CATA:1,2017-04-05T09:30:00Z,30.3085,-88.1395,95.4,1111122 
DISL,ioos:station:DISL:CATA:1,2017-04-05T10:00:00Z,30.3085,-88.1395,95.0,1111122 
DISL,ioos:station:DISL:CATA:1,2017-04-05T10:30:00Z,30.3085,-88.1395,95.1,1111122 
DISL,ioos:station:DISL:CATA:1,2017-04-05T11:00:00Z,30.3085,-88.1395,96.0,1111122 
DISL,ioos:station:DISL:CATA:1,2017-04-05T11:30:00Z,30.3085,-88.1395,96.7,1111122 
DISL,ioos:station:DISL:CATA:1,2017-04-05T12:00:00Z,30.3085,-88.1395,96.7,1111122 
DISL,ioos:station:DISL:CATA:1,2017-04-05T12:30:00Z,30.3085,-88.1395,95.1,1111122 
DISL,ioos:station:DISL:CATA:1,2017-04-05T13:00:00Z,30.3085,-88.1395,94.6,1111122 
DISL,ioos:station:DISL:CATA:1,2017-04-05T13:30:00Z,30.3085,-88.1395,94.2,1111122 
DISL,ioos:station:DISL:CATA:1,2017-04-05T14:00:00Z,30.3085,-88.1395,93.8,1111122 
DISL,ioos:station:DISL:CATA:1,2017-04-05T14:30:00Z,30.3085,-88.1395,94.2,1111122 
DISL,ioos:station:DISL:CATA:1,2017-04-05T15:00:00Z,30.3085,-88.1395,94.5,1111122 
DISL,ioos:station:DISL:CATA:1,2017-04-05T15:30:00Z,30.3085,-88.1395,94.0,1111122 
DISL,ioos:station:DISL:CATA:1,2017-04-05T16:00:00Z,30.3085,-88.1395,86.5,1111122 
DISL,ioos:station:DISL:CATA:1,2017-04-05T16:30:00Z,30.3085,-88.1395,89.6,1111122 
DISL,ioos:station:DISL:CATA:1,2017-04-05T17:00:00Z,30.3085,-88.1395,91.6,1111122 
DISL,ioos:station:DISL:CATA:1,2017-04-05T17:30:00Z,30.3085,-88.1395,92.7,1111122 
DISL,ioos:station:DISL:CATA:1,2017-04-05T18:00:00Z,30.3085,-88.1395,93.1,1111122 
DISL,ioos:station:DISL:CATA:1,2017-04-05T18:30:00Z,30.3085,-88.1395,92.8,1111122 
DISL,ioos:station:DISL:CATA:1,2017-04-05T19:00:00Z,30.3085,-88.1395,92.6,1111122 
DISL,ioos:station:DISL:CATA:1,2017-04-05T19:30:00Z,30.3085,-88.1395,93.0,1111122 
DISL,ioos:station:DISL:CATA:1,2017-04-05T20:00:00Z,30.3085,-88.1395,92.2,1111122 
DISL,ioos:station:DISL:CATA:1,2017-04-05T20:30:00Z,30.3085,-88.1395,92.3,1111122 
DISL,ioos:station:DISL:CATA:1,2017-04-05T21:00:00Z,30.3085,-88.1395,90.9,1111122 
DISL,ioos:station:DISL:CATA:1,2017-04-05T21:30:00Z,30.3085,-88.1395,90.9,1111122 
DISL,ioos:station:DISL:CATA:1,2017-04-05T22:00:00Z,30.3085,-88.1395,90.7,1111122 
DISL,ioos:station:DISL:CATA:1,2017-04-05T22:30:00Z,30.3085,-88.1395,89.8,1111122 
DISL,ioos:station:DISL:CATA:1,2017-04-05T23:00:00Z,30.3085,-88.1395,89.0,1111122 
DISL,ioos:station:DISL:CATA:1,2017-04-05T23:30:00Z,30.3085,-88.1395,90.9,1111122 
DISL,ioos:station:DISL:CATA:1,2017-04-06T00:00:00Z,30.3085,-88.1395,92.3,1111122 
DISL,ioos:station:DISL:CATA:1,2017-04-06T00:30:00Z,30.3085,-88.1395,85.2,1111122 
DISL,ioos:station:DISL:CATA:1,2017-04-06T01:00:00Z,30.3085,-88.1395,54.52,1111122 
DISL,ioos:station:DISL:CATA:1,2017-04-06T01:30:00Z,30.3085,-88.1395,52.32,1111122 
DISL,ioos:station:DISL:CATA:1,2017-04-06T02:00:00Z,30.3085,-88.1395,34.68,1111122 
DISL,ioos:station:DISL:CATA:1,2017-04-06T02:30:00Z,30.3085,-88.1395,36.67,1111122 
DISL,ioos:station:DISL:CATA:1,2017-04-06T03:00:00Z,30.3085,-88.1395,43.63,1111122 
DISL,ioos:station:DISL:CATA:1,2017-04-06T03:30:00Z,30.3085,-88.1395,53.22,1111122 
DISL,ioos:station:DISL:CATA:1,2017-04-06T04:00:00Z,30.3085,-88.1395,50.03,1111122 
DISL,ioos:station:DISL:CATA:1,2017-04-06T04:30:00Z,30.3085,-88.1395,46.64,1111122 
DISL,ioos:station:DISL:CATA:1,2017-04-06T05:00:00Z,30.3085,-88.1395,48.64,1111122 
DISL,ioos:station:DISL:CATA:1,2017-04-06T05:30:00Z,30.3085,-88.1395,50.36,1111122 
DISL,ioos:station:DISL:CATA:1,2017-04-06T06:30:00Z,30.3085,-88.1395,54.3,1111122 
DISL,ioos:station:DISL:CATA:1,2017-04-06T07:00:00Z,30.3085,-88.1395,54.1,1111122 
DISL,ioos:station:DISL:CATA:1,2017-04-06T07:30:00Z,30.3085,-88.1395,50.26,1111122 
DISL,ioos:station:DISL:CATA:1,2017-04-06T08:00:00Z,30.3085,-88.1395,58.83,1111122 
DISL,ioos:station:DISL:CATA:1,2017-04-06T08:30:00Z,30.3085,-88.1395,57.67,1111122 
DISL,ioos:station:DISL:CATA:1,2017-04-06T09:00:00Z,30.3085,-88.1395,57.33,1111122 
DISL,ioos:station:DISL:CATA:1,2017-04-06T09:30:00Z,30.3085,-88.1395,58.74,1111122 
DISL,ioos:station:DISL:CATA:1,2017-04-06T10:00:00Z,30.3085,-88.1395,59.53,1111122 
DISL,ioos:station:DISL:CATA:1,2017-04-06T10:30:00Z,30.3085,-88.1395,63.13,1111122 
DISL,ioos:station:DISL:CATA:1,2017-04-06T11:00:00Z,30.3085,-88.1395,65.02,1111122 
DISL,ioos:station:DISL:CATA:1,2017-04-06T11:30:00Z,30.3085,-88.1395,59.71,1111122 
DISL,ioos:station:DISL:CATA:1,2017-04-06T12:00:00Z,30.3085,-88.1395,67.63,1111122 
DISL,ioos:station:DISL:CATA:1,2017-04-06T12:30:00Z,30.3085,-88.1395,60.15,1111122 
DISL,ioos:station:DISL:CATA:1,2017-04-06T13:00:00Z,30.3085,-88.1395,59.38,1111122 
DISL,ioos:station:DISL:CATA:1,2017-04-06T13:30:00Z,30.3085,-88.1395,58.62,1111122 
DISL,ioos:station:DISL:CATA:1,2017-04-06T14:00:00Z,30.3085,-88.1395,50.43,1111122 
DISL,ioos:station:DISL:CATA:1,2017-04-06T14:30:00Z,30.3085,-88.1395,44.26,1111122 
DISL,ioos:station:DISL:CATA:1,2017-04-06T15:00:00Z,30.3085,-88.1395,47.17,1111122 
DISL,ioos:station:DISL:CATA:1,2017-04-06T15:30:00Z,30.3085,-88.1395,45.11,1111122 
DISL,ioos:station:DISL:CATA:1,2017-04-06T16:00:00Z,30.3085,-88.1395,35.62,1111122 
DISL,ioos:station:DISL:CATA:1,2017-04-06T16:30:00Z,30.3085,-88.1395,41.44,1111122 
DISL,ioos:station:DISL:CATA:1,2017-04-06T17:00:00Z,30.3085,-88.1395,33.42,1111122 
DISL,ioos:station:DISL:CATA:1,2017-04-06T17:30:00Z,30.3085,-88.1395,31.53,1111122 
DISL,ioos:station:DISL:CATA:1,2017-04-06T18:00:00Z,30.3085,-88.1395,32.73,1111122 
DISL,ioos:station:DISL:CATA:1,2017-04-06T18:30:00Z,30.3085,-88.1395,29.54,1111122 
DISL,ioos:station:DISL:CATA:1,2017-04-06T19:00:00Z,30.3085,-88.1395,32.45,1111122 
DISL,ioos:station:DISL:CATA:1,2017-04-06T19:30:00Z,30.3085,-88.1395,27.35,1111122 
DISL,ioos:station:DISL:CATA:1,2017-04-06T20:00:00Z,30.3085,-88.1395,34.68,1111122 
DISL,ioos:station:DISL:CATA:1,2017-04-06T20:30:00Z,30.3085,-88.1395,25.09,1111122 
DISL,ioos:station:DISL:CATA:1,2017-04-06T21:00:00Z,30.3085,-88.1395,31.67,1111122 
DISL,ioos:station:DISL:CATA:1,2017-04-06T21:30:00Z,30.3085,-88.1395,34.24,1111122 
DISL,ioos:station:DISL:CATA:1,2017-04-06T22:00:00Z,30.3085,-88.1395,27.83,1111122 
DISL,ioos:station:DISL:CATA:1,2017-04-06T22:30:00Z,30.3085,-88.1395,37.22,1111122 
DISL,ioos:station:DISL:CATA:1,2017-04-06T23:00:00Z,30.3085,-88.1395,29.06,1111122 
DISL,ioos:station:DISL:CATA:1,2017-04-06T23:30:00Z,30.3085,-88.1395,31.29,1111122 
DISL,ioos:station:DISL:CATA:1,2017-04-07T00:00:00Z,30.3085,-88.1395,32.08,1111122 
DISL,ioos:station:DISL:CATA:1,2017-04-07T00:30:00Z,30.3085,-88.1395,35.44,1111122 
DISL,ioos:station:DISL:CATA:1,2017-04-07T01:00:00Z,30.3085,-88.1395,39.53,1111122 
DISL,ioos:station:DISL:CATA:1,2017-04-07T01:30:00Z,30.3085,-88.1395,38.09,1111122 
DISL,ioos:station:DISL:CATA:1,2017-04-07T02:00:00Z,30.3085,-88.1395,47.1,1111122 
DISL,ioos:station:DISL:CATA:1,2017-04-07T02:30:00Z,30.3085,-88.1395,40.93,1111122 
DISL,ioos:station:DISL:CATA:1,2017-04-07T03:00:00Z,30.3085,-88.1395,42.54,1111122 
DISL,ioos:station:DISL:CATA:1,2017-04-07T03:30:00Z,30.3085,-88.1395,45.66,1111122 